Location: Fernhill
(41.0167°S, 175.6333°E)
Time: 10:02:07
(UTC+00:00)

CZ-4B R/B - Pass Details

Date: 08 November 2025
Orbit: 808 x 879 km, 98.9° (Epoch: 12 December)

Event Time Altitude Azimuth Distance (km) Brightness Sun altitude
Rises 09:13:56 0° 163° (SSE) 3,422 6.8 -20.5°
Reaches altitude 10° 09:16:23 10° 159° (SSE) 2,470 5.9 -20.8°
Maximum altitude 09:21:47 59° 79° (E) 952 3.2 -21.5°
Enters shadow 09:23:06 46° 28° (NNE) 1,099 3.3 -21.6°
